Regional Weather Roundup
Issued by NWS

Home | Current Version | Previous Version | Graphics & Text | Print | Product List | Glossary On
Versions: 1 2 3 4 5 6 7 8 9 10 11 12 13 14 15 16 17 18 19 20 21 22 23 24 25 26 27 28 29 30 31 32 33 34 35 36 37 38 39 40 41 42 43 44 45 46 47 48 49 50
000
ASUS43 KLOT 210110
RWRIL

ILLINOIS REGIONAL WEATHER ROUNDUP
NATIONAL WEATHER SERVICE CHICAGO/ROMEOVILLE IL
800 PM CDT SAT SEP 20 2014

NOTE: "FAIR" INDICATES FEW OR NO CLOUDS BELOW 12,000 FEET WITH NO
SIGNIFICANT WEATHER AND/OR OBSTRUCTIONS TO VISIBILITY.

* THESE STATIONS ARE NOT UNDER NWS QUALITY CONTROL. THEY ALSO MAY NOT
  REPORT WEATHER SUCH AS PRECIPITATION OR FOG.

ILZ001-002-007-009-015-016-024-210200-
NORTHWEST ILLINOIS

CITY           SKY/WX    TMP DP  RH WIND       PRES   REMARKS
MOLINE         PTCLDY    71  67  87 SW5       29.80F
STERLING*      CLEAR     72  64  78 CALM      29.79F
SAVANNA*       PTCLDY    73  65  76 SW9       29.78S
$$

ILZ003-004-008-010-011-017-018-210200-
NORTH CENTRAL ILLINOIS

CITY           SKY/WX    TMP DP  RH WIND       PRES   REMARKS
ROCKFORD       PTCLDY    70  64  81 S7        29.79F
FREEPORT*      CLEAR     68  65  90 SW7       29.80S
ROCHELLE*      CLEAR     67  63  84 SW7       29.81S
DE KALB*       CLEAR     66  63  90 SW6       29.82S
PERU*          PTCLDY    72  68  88 SW9       29.82S
$$

ILZ005-006-012>014-019>023-210200-
NORTHEAST ILLINOIS

CITY           SKY/WX    TMP DP  RH WIND       PRES   REMARKS
CHICAGO-OHARE  PTCLDY    71  62  73 S3        29.80S
CHICAGO-MIDWAY MOCLDY    73  66  78 SW9       29.80F
AURORA         CLEAR     70  65  84 SW7       29.81S
LANSING*       MOCLDY    68  65  91 S6        29.83S
JOLIET*        CLEAR     67  64  89 CALM      29.83R
WAUKEGAN       CLEAR     66  62  87 SW7       29.77F
DUPAGE AIRPORT CLEAR     68  63  84 SW8       29.80S
KANKAKEE*      CLOUDY    71  68  90 SW6       29.85R
WHEELING       CLEAR     68  60  75 S5        29.81S
MORRIS*        CLEAR     69  69 100 S3        29.82S
ROMEOVILLE*    PTCLDY    67  65  93 SW7       29.82R
NORTHERLY ISL    N/A     72  62  71 SW2         N/A
$$

LMZ740>746-210200-
SOUTHERN LAKE MICHIGAN

STATION/POSITION SKY/WX   TEMP    WIND        PRES    VSBY  WAVE
                          AIR SEA DIR/SP/G                  HT/PER
                          (F)     (DEG/KT/KT) (MB)    (MI)  (FT/S)
SOUTHERN BUOY              65 63  210/ 12/ 14 1008.0R
WAUKEGAN HARBOR            70     230/  8/  9   N/A
HARRISON CRIB              72     210/ 13/ 15   N/A
BURNHAM HARBOR             72     190/  2/  7   N/A
CALUMET HARBOR             72     200/  5/  6 1008.3R
MICHIGAN CITY              68     160/ 15/ 20   N/A
MICHIGAN CITY 6N           67 65  190/ 10/ 14   N/A           1/ 3
ST. JOSEPH                 67 65  190/ 12/ 16   N/A           2/ 3
$$

ILZ025>027-034>036-040-047-049-050-058-095>099-210200-
WEST-CENTRAL ILLINOIS

CITY           SKY/WX    TMP DP  RH WIND       PRES   REMARKS
QUINCY         MOCLDY    73  70  90 SW3       29.88S
GALESBURG*     CLEAR     73  67  80 SW8       29.84F
MACOMB*        PTCLDY    74  68  82 W6        29.88R
JACKSONVILLE*  PTCLDY    77  70  78 SW3       29.89R
PITTSFIELD*    PTCLDY    77  68  73 SW6       29.89S
$$

ILZ028>032-037-038-041>044-048-051>054-059>061-210200-
CENTRAL ILLINOIS

CITY           SKY/WX    TMP DP  RH WIND       PRES   REMARKS
PONTIAC        PTCLDY    73  70  88 CALM      29.84S
DECATUR        PTCLDY    72  70  93 S5        29.89S FOG
PEORIA         MOCLDY    77  67  71 W6        29.85R
LACON*         MOCLDY    73  67  82 CALM      29.82S
LINCOLN*       PTCLDY    74  68  80 SW3       29.84S
SPRINGFIELD    CLEAR     71  68  90 SW3       29.87F
TAYLORVILLE    PTCLDY    72  68  88 S7        29.89S
$$

ILZ033-039-045-046-055>057-062-063-210200-
EAST-CENTRAL ILLINOIS

CITY           SKY/WX    TMP DP  RH WIND       PRES   REMARKS
CHAMPAIGN      MOCLDY    72  70  93 S6        29.89F
DANVILLE*      HVY RAIN  68  66  93 S9        29.85S
RANTOUL*       PTCLDY    72  68  87 SW9       29.88S
MATTOON        CLOUDY    74  68  81 S5        29.91R
PARIS*         CLOUDY    68  67  95 SE5       29.92F THUNDER
$$

ILZ079-100>102-210200-
SOUTHWEST ILLINOIS

CITY           SKY/WX    TMP DP  RH WIND       PRES   REMARKS
BELLEVILLE     PTCLDY    77  67  73 CALM      29.91R
CAHOKIA*       PTCLDY    78  66  66 SW3       29.91S HX  80
SPARTA*        CLEAR     77  68  72 SW5       29.94R
$$

ILZ064>066-069>071-074>076-080>082-084>086-088>090-092>094-210200-
SOUTH-CENTRAL ILLINOIS

CITY           SKY/WX    TMP DP  RH WIND       PRES   REMARKS
CARBONDALE     CLEAR     73  67  81 SW6       29.94R
CAIRO*         CLEAR     76  68  75 S6        29.95S
EFFINGHAM*     PTCLDY    73  66  77 CALM      29.92S
MARION         CLEAR     73  68  83 S5        29.95R
MT. VERNON     PTCLDY    73  66  78 SW3       29.94R
CENTRALIA*     PTCLDY    72  66  83 S6        29.93R
SALEM*         PTCLDY    75  70  84 S5        29.93R
METROPOLIS*    CLEAR     76  69  77 S5        29.96R
$$

ILZ067-068-072-073-078-083-087-091-210200-
SOUTHEAST ILLINOIS

CITY           SKY/WX    TMP DP  RH WIND       PRES   REMARKS
LAWRENCEVILLE  CLEAR     72  66  81 S7        29.94R
FLORA*         CLEAR     72  67  82 S3        29.93R
FAIRFIELD*     CLEAR    N/A N/A N/A S3        29.93S
HARRISBURG*    CLEAR     73  67  81 CALM      29.96R
ROBINSON*      PTCLDY    74  69  86 S7        29.93R
CARMI*         CLEAR     72  68  88 S3        29.94R
$$

ABBREVIATIONS USED IN REMARKS
   TC - TEMPERATURE IN CELSIUS
  WCI - WIND CHILL INDEX
   HX - HEAT INDEX
  VSB - VISIBILITY
$$



USA.gov is the U.S. government's official web portal to all federal, state and local government web resources and services.